When you browse on this site, cookies collect data to enhance your experience and personalize the content and advertising you see.
Visit our Privacy Policy to learn more. By continuing to use the site, you agree to this use of cookies and data.
  • In Hungary
  • List of Countries
  • For 7 days
  • Water Temperature
  • Satellite Maps
  • Weather Map
  • News
  • Weather Widgets
  • user-avatar
    Login

    Hourly Weather Koeln

    Today, 20 July, Saturday

    Time Temperature Precipitation Wind Pressure Humidity
    00:00 +20°C° 0 mm 1 mps 755 mmHg 72%
    01:00 +19°C° 0 mm 2 mps 755 mmHg 74%
    02:00 +19°C° 0 mm 2 mps 754 mmHg 76%
    03:00 +18°C° 0 mm 2 mps 754 mmHg 78%
    04:00 +19°C° 0 mm 3 mps 754 mmHg 76%
    05:00 +20°C° 0 mm 3 mps 753 mmHg 73%
    06:00 +22°C° 0 mm 3 mps 753 mmHg 70%
    07:00 +25°C° 0.1 mm 4 mps 753 mmHg 64%
    08:00 +27°C° 0.1 mm 4 mps 753 mmHg 58%
    09:00 +29°C° 0.1 mm 5 mps 753 mmHg 52%
    10:00 +29°C° 0.7 mm 5 mps 753 mmHg 52%
    11:00 +29°C° 0.7 mm 5 mps 752 mmHg 51%
    12:00 +30°C° 0.7 mm 4 mps 752 mmHg 51%
    13:00 +30°C° 0.3 mm 5 mps 752 mmHg 49%
    14:00 +30°C° 0.3 mm 6 mps 753 mmHg 47%
    15:00 +30°C° 0.3 mm 7 mps 753 mmHg 45%
    16:00 +29°C° 0.2 mm 6 mps 753 mmHg 52%
    17:00 +27°C° 0.2 mm 5 mps 753 mmHg 59%
    18:00 +25°C° 0.2 mm 4 mps 754 mmHg 66%
    19:00 +23°C° 0.2 mm 4 mps 754 mmHg 70%
    20:00 +22°C° 0.2 mm 4 mps 755 mmHg 74%
    21:00 +21°C° 0.2 mm 3 mps 755 mmHg 79%
    22:00 +20°C° 0 mm 3 mps 756 mmHg 79%
    23:00 +20°C° 0 mm 3 mps 756 mmHg 79%

    Tomorrow, 21 July, Sunday

    Time Temperature Precipitation Wind Pressure Humidity
    00:00 +19°C° 0 mm 3 mps 756 mmHg 79%
    01:00 +18°C° 0 mm 3 mps 757 mmHg 80%
    02:00 +17°C° 0 mm 3 mps 757 mmHg 81%
    03:00 +16°C° 0 mm 3 mps 757 mmHg 81%
    04:00 +17°C° 0 mm 3 mps 758 mmHg 81%
    05:00 +17°C° 0 mm 3 mps 758 mmHg 80%
    06:00 +18°C° 0 mm 3 mps 759 mmHg 79%
    07:00 +19°C° 0 mm 3 mps 759 mmHg 73%
    08:00 +21°C° 0 mm 4 mps 760 mmHg 67%
    09:00 +22°C° 0 mm 4 mps 760 mmHg 61%
    10:00 +23°C° 0 mm 4 mps 760 mmHg 59%
    11:00 +25°C° 0 mm 4 mps 760 mmHg 56%
    12:00 +25°C° 0 mm 4 mps 761 mmHg 53%
    13:00 +26°C° 0 mm 3 mps 761 mmHg 52%
    14:00 +26°C° 0 mm 3 mps 761 mmHg 50%
    15:00 +26°C° 0 mm 3 mps 761 mmHg 49%
    16:00 +26°C° 0 mm 3 mps 761 mmHg 51%
    17:00 +25°C° 0 mm 2 mps 761 mmHg 54%
    18:00 +25°C° 0 mm 2 mps 761 mmHg 57%
    19:00 +24°C° 0 mm 1 mps 762 mmHg 61%
    20:00 +22°C° 0 mm 1 mps 762 mmHg 65%
    21:00 +21°C° 0 mm 1 mps 763 mmHg 70%
    22:00 +20°C° 0 mm 1 mps 763 mmHg 71%
    23:00 +20°C° 0 mm 1 mps 763 mmHg 73%

    Day after tomorrow, 22 July, Monday

    Time Temperature Precipitation Wind Pressure Humidity
    00:00 +19°C° 0 mm 1 mps 762 mmHg 74%
    01:00 +19°C° 0 mm 1 mps 762 mmHg 74%
    02:00 +19°C° 0 mm 1 mps 763 mmHg 75%
    03:00 +18°C° 0 mm 1 mps 763 mmHg 75%
    04:00 +19°C° 0 mm 1 mps 763 mmHg 72%
    05:00 +20°C° 0 mm 1 mps 763 mmHg 70%
    06:00 +21°C° 0 mm 1 mps 763 mmHg 67%
    07:00 +22°C° 0 mm 1 mps 763 mmHg 61%
    08:00 +24°C° 0 mm 1 mps 763 mmHg 54%
    09:00 +26°C° 0 mm 2 mps 763 mmHg 48%
    10:00 +27°C° 0 mm 2 mps 763 mmHg 44%
    11:00 +28°C° 0 mm 2 mps 763 mmHg 41%
    12:00 +29°C° 0 mm 2 mps 763 mmHg 37%
    13:00 +30°C° 0 mm 2 mps 762 mmHg 37%
    14:00 +30°C° 0 mm 2 mps 762 mmHg 36%
    15:00 +30°C° 0 mm 1 mps 762 mmHg 35%
    16:00 +29°C° 0 mm 1 mps 762 mmHg 39%
    17:00 +29°C° 0 mm 1 mps 762 mmHg 43%
    18:00 +28°C° 0 mm 1 mps 762 mmHg 47%
    19:00 +26°C° 0 mm 1 mps 762 mmHg 49%
    20:00 +25°C° 0 mm 1 mps 762 mmHg 52%
    21:00 +23°C° 0 mm 1 mps 763 mmHg 55%
    22:00 +23°C° 0 mm 1 mps 762 mmHg 57%
    23:00 +22°C° 0 mm 1 mps 762 mmHg 59%

    23 July, Tuesday

    Time Temperature Precipitation Wind Pressure Humidity
    00:00 +21°C° 0 mm 1 mps 762 mmHg 61%
    01:00 +21°C° 0 mm 1 mps 762 mmHg 63%
    02:00 +20°C° 0 mm 1 mps 762 mmHg 65%
    03:00 +20°C° 0 mm 1 mps 762 mmHg 67%
    04:00 +21°C° 0 mm 1 mps 761 mmHg 65%
    05:00 +22°C° 0 mm 1 mps 761 mmHg 63%
    06:00 +23°C° 0 mm 1 mps 761 mmHg 61%
    07:00 +25°C° 0 mm 1 mps 761 mmHg 54%
    08:00 +27°C° 0 mm 2 mps 761 mmHg 48%
    09:00 +29°C° 0 mm 2 mps 761 mmHg 42%
    10:00 +31°C° 0 mm 2 mps 761 mmHg 38%
    11:00 +32°C° 0 mm 2 mps 760 mmHg 34%
    12:00 +34°C° 0 mm 3 mps 760 mmHg 30%
    13:00 +35°C° 0 mm 2 mps 759 mmHg 29%
    14:00 +35°C° 0 mm 2 mps 759 mmHg 28%
    15:00 +36°C° 0 mm 2 mps 759 mmHg 28%
    16:00 +35°C° 0 mm 2 mps 758 mmHg 32%
    17:00 +34°C° 0 mm 2 mps 758 mmHg 36%
    18:00 +32°C° 0 mm 2 mps 758 mmHg 40%
    19:00 +30°C° 0 mm 2 mps 758 mmHg 44%
    20:00 +28°C° 0 mm 2 mps 758 mmHg 47%
    21:00 +26°C° 0 mm 2 mps 759 mmHg 50%
    22:00 +26°C° 0 mm 2 mps 758 mmHg 53%
    23:00 +25°C° 0 mm 2 mps 758 mmHg 55%

    24 July, Wednesday

    Time Temperature Precipitation Wind Pressure Humidity
    00:00 +24°C° 0 mm 2 mps 758 mmHg 58%
    01:00 +24°C° 0 mm 2 mps 758 mmHg 60%
    02:00 +23°C° 0 mm 2 mps 758 mmHg 63%
    03:00 +21°C° 0 mm 2 mps 758 mmHg 66%
    04:00 +23°C° 0 mm 2 mps 758 mmHg 64%
    05:00 +24°C° 0 mm 2 mps 758 mmHg 63%
    06:00 +25°C° 0 mm 2 mps 758 mmHg 62%
    07:00 +27°C° 0 mm 3 mps 758 mmHg 56%
    08:00 +29°C° 0 mm 3 mps 758 mmHg 51%
    09:00 +32°C° 0 mm 4 mps 758 mmHg 45%
    10:00 +34°C° 0 mm 4 mps 757 mmHg 41%
    11:00 +35°C° 0 mm 4 mps 757 mmHg 37%
    12:00 +36°C° 0 mm 4 mps 757 mmHg 32%
    13:00 +37°C° 0 mm 3 mps 757 mmHg 31%
    14:00 +37°C° 0 mm 3 mps 756 mmHg 30%
    15:00 +38°C° 0 mm 3 mps 756 mmHg 28%
    16:00 +37°C° 0 mm 3 mps 756 mmHg 32%
    17:00 +35°C° 0 mm 2 mps 756 mmHg 37%
    18:00 +34°C° 0 mm 2 mps 756 mmHg 41%
    19:00 +32°C° 0 mm 2 mps 756 mmHg 45%
    20:00 +30°C° 0 mm 3 mps 757 mmHg 49%
    21:00 +28°C° 0 mm 3 mps 757 mmHg 53%
    22:00 +27°C° 0 mm 2 mps 757 mmHg 55%
    23:00 +26°C° 0 mm 2 mps 757 mmHg 56%

    25 July, Thursday

    Time Temperature Precipitation Wind Pressure Humidity
    00:00 +26°C° 0 mm 2 mps 757 mmHg 58%
    01:00 +25°C° 0 mm 2 mps 757 mmHg 60%
    02:00 +25°C° 0 mm 2 mps 757 mmHg 62%
    03:00 +24°C° 0 mm 2 mps 756 mmHg 63%
    04:00 +25°C° 0 mm 2 mps 757 mmHg 62%
    05:00 +26°C° 0 mm 2 mps 757 mmHg 61%
    06:00 +26°C° 0 mm 3 mps 757 mmHg 60%
    07:00 +28°C° 0 mm 3 mps 757 mmHg 54%
    08:00 +30°C° 0 mm 4 mps 757 mmHg 48%
    09:00 +33°C° 0 mm 5 mps 757 mmHg 42%
    10:00 +35°C° 0 mm 5 mps 756 mmHg 38%
    11:00 +36°C° 0 mm 5 mps 756 mmHg 34%
    12:00 +37°C° 0 mm 5 mps 756 mmHg 30%
    13:00 +38°C° 0 mm 4 mps 755 mmHg 29%
    14:00 +38°C° 0 mm 4 mps 755 mmHg 28%
    15:00 +38°C° 0 mm 4 mps 755 mmHg 26%
    16:00 +37°C° 0 mm 4 mps 755 mmHg 30%
    17:00 +36°C° 0 mm 4 mps 754 mmHg 33%
    18:00 +35°C° 0 mm 3 mps 754 mmHg 36%
    19:00 +33°C° 0 mm 3 mps 754 mmHg 40%
    20:00 +30°C° 0 mm 3 mps 754 mmHg 43%
    21:00 +29°C° 0 mm 3 mps 754 mmHg 47%
    22:00 +28°C° 0 mm 3 mps 754 mmHg 49%
    23:00 +27°C° 0 mm 3 mps 754 mmHg 52%
    Show more